This is the latest recevied weather packets stored in our database for station/object HASTNG-WX. If no packets are shown the sender has not sent any weather packets the latest 1 day(s).
| Time | Temp. | Humidity | Pressure | Rain* | Wind** | Luminosity | Snow |
|---|---|---|---|---|---|---|---|
| 1777989667 | 9.44° C | 55% | 977.2 hPa | 0.51 mm | 5.36 m/s, 279° | - | - |
| 1777988732 | 10.56° C | 63% | 977 hPa | 0 mm | 5.81 m/s, 284° | - | - |
| 1777987851 | 10.56° C | 63% | 977 hPa | 0 mm | 5.81 m/s, 291° | - | - |
| 1777986932 | 10.56° C | 63% | 977 hPa | 0 mm | 5.36 m/s, 291° | - | - |
| 1777986062 | 11.11° C | 63% | 977 hPa | 0 mm | 4.02 m/s, 300° | - | - |
| 1777985131 | 10.56° C | 68% | 976 hPa | 0 mm | 4.47 m/s, 310° | - | - |
| 1777984251 | 10.56° C | 70% | 974.6 hPa | 0 mm | 4.92 m/s, 287° | - | - |
| 1777983331 | 10° C | 70% | 974.6 hPa | 0 mm | 4.92 m/s, 295° | - | - |
| 1777982471 | 10° C | 70% | 974.6 hPa | 0 mm | 4.92 m/s, 284° | - | - |
| 1777981532 | 10° C | 67% | 974.6 hPa | 0 mm | 4.02 m/s, 279° | - | - |
| 1777980649 | 10° C | 63% | 973.3 hPa | 0 mm | 3.58 m/s, 270° | - | - |
| 1777979731 | 10° C | 63% | 973.3 hPa | 0 mm | 3.58 m/s, 264° | - | - |
| 1777978865 | 10° C | 63% | 973.3 hPa | 0 mm | 3.58 m/s, 258° | - | - |
| 1777977931 | 10.56° C | 57% | 971.8 hPa | 0 mm | 4.02 m/s, 261° | - | - |
| 1777977050 | 10.56° C | 57% | 971.9 hPa | 0 mm | 4.02 m/s, 258° | - | - |
| 1777976131 | 10.56° C | 57% | 971.9 hPa | 0 mm | 4.47 m/s, 259° | - | - |
| 1777975264 | 10.56° C | 57% | 971.9 hPa | 0 mm | 4.47 m/s, 262° | - | - |
| 1777974331 | 11.11° C | 68% | 972 hPa | 0 mm | 3.58 m/s, 262° | - | - |
| 1777973454 | 11.11° C | 71% | 971.8 hPa | 0 mm | 3.13 m/s, 265° | - | - |
| 1777972531 | 11.11° C | 71% | 971.8 hPa | 0 mm | 4.92 m/s, 250° | - | - |
* Rain latest hour (hover to see other rain measurements)
** Current wind speed in m/s (hover to see current wind gust speed)